Terminal Aerodrome Forecast
Issued by NWS Hastings, NE

Home | Current Version | Previous Version | Text Only | Print | Product List | Glossary On
Versions: 1 2 3 4 5 6 7 8 9 10 11 12 13 14 15 16 17 18 19 20 21 22 23 24 25 26 27 28 29 30 31 32 33 34 35 36 37 38 39 40 41 42 43 44 45 46 47
000
FTUS43 KGID 051120
TAFGRI
TAF
KGRI 051120Z 0512/0612 16014KT P6SM SCT250
     FM051600 17015G24KT P6SM SCT120 SCT250
     FM052200 17020G28KT P6SM SCT060 SCT250
     FM060100 16015G23KT P6SM BKN150=

USA.gov is the U.S. government's official web portal to all federal, state and local government web resources and services.